When you browse on this site, cookies collect data to enhance your experience and personalize the content and advertising you see.
Visit our Privacy Policy to learn more. By continuing to use the site, you agree to this use of cookies and data.
  • Em Portugal
  • Lista de países
  • Para 7 dias
  • Temperatura da água
  • Mapas de satélite
  • Mapa do tempo
  • Widgets de tempo
  • user-avatar
    Iniciar Sessão

    Previsão horária em Brzezniak

    Hoje, 24 Abril, Quarta-feira

    Tempo Temperatura Precipitação Vento Pressão Humidade
    00:00 +11°C° 0 mm 7 m/s 751 mmHg 56%
    01:00 +10°C° 0 mm 5 m/s 750 mmHg 60%
    02:00 +10°C° 0 mm 6 m/s 750 mmHg 62%
    03:00 +9°C° 0 mm 6 m/s 750 mmHg 64%
    04:00 +9°C° 0 mm 6 m/s 750 mmHg 67%
    05:00 +10°C° 0 mm 6 m/s 750 mmHg 68%
    06:00 +10°C° 0 mm 6 m/s 750 mmHg 69%
    07:00 +11°C° 0 mm 7 m/s 750 mmHg 69%
    08:00 +14°C° 0 mm 7 m/s 750 mmHg 66%
    09:00 +15°C° 0 mm 7 m/s 750 mmHg 62%
    10:00 +17°C° 0 mm 8 m/s 750 mmHg 58%
    11:00 +17°C° 0 mm 7 m/s 750 mmHg 58%
    12:00 +19°C° 0 mm 6 m/s 750 mmHg 58%
    13:00 +19°C° 0 mm 6 m/s 750 mmHg 58%
    14:00 +19°C° 0 mm 6 m/s 749 mmHg 58%
    15:00 +20°C° 0 mm 6 m/s 749 mmHg 57%
    16:00 +20°C° 0 mm 6 m/s 749 mmHg 57%
    17:00 +19°C° 0 mm 6 m/s 749 mmHg 60%
    18:00 +17°C° 0 mm 5 m/s 749 mmHg 62%
    19:00 +17°C° 0 mm 5 m/s 749 mmHg 65%
    20:00 +16°C° 0 mm 5 m/s 749 mmHg 68%
    21:00 +15°C° 0 mm 5 m/s 749 mmHg 71%
    22:00 +14°C° 0 mm 4 m/s 750 mmHg 74%
    23:00 +14°C° 0 mm 5 m/s 750 mmHg 74%

    Amanhã, 25 Abril, Quinta-feira

    Tempo Temperatura Precipitação Vento Pressão Humidade
    00:00 +14°C° 0 mm 5 m/s 749 mmHg 74%
    01:00 +13°C° 0 mm 5 m/s 749 mmHg 74%
    02:00 +13°C° 0 mm 5 m/s 749 mmHg 75%
    03:00 +13°C° 0 mm 5 m/s 749 mmHg 76%
    04:00 +12°C° 0 mm 5 m/s 749 mmHg 78%
    05:00 +13°C° 0 mm 5 m/s 749 mmHg 76%
    06:00 +14°C° 0 mm 5 m/s 749 mmHg 75%
    07:00 +15°C° 0 mm 6 m/s 749 mmHg 74%
    08:00 +17°C° 0 mm 5 m/s 749 mmHg 70%
    09:00 +19°C° 0 mm 5 m/s 750 mmHg 66%
    10:00 +20°C° 0 mm 5 m/s 750 mmHg 62%
    11:00 +21°C° 0 mm 4 m/s 750 mmHg 61%
    12:00 +21°C° 0 mm 4 m/s 750 mmHg 60%
    13:00 +22°C° 0 mm 4 m/s 749 mmHg 58%
    14:00 +22°C° 0 mm 3 m/s 749 mmHg 59%
    15:00 +23°C° 0 mm 2 m/s 749 mmHg 59%
    16:00 +23°C° 0 mm 2 m/s 749 mmHg 60%
    17:00 +22°C° 0 mm 1 m/s 749 mmHg 65%
    18:00 +20°C° 0 mm 1 m/s 749 mmHg 69%
    19:00 +17°C° 0 mm 0 m/s 749 mmHg 74%
    20:00 +18°C° 0 mm 1 m/s 749 mmHg 77%
    21:00 +18°C° 0 mm 1 m/s 749 mmHg 81%
    22:00 +16°C° 0 mm 2 m/s 749 mmHg 84%
    23:00 +15°C° 0 mm 2 m/s 749 mmHg 85%

    Depois de amanhã, 26 Abril, Sexta-feira

    Tempo Temperatura Precipitação Vento Pressão Humidade
    00:00 +15°C° 0 mm 2 m/s 749 mmHg 87%
    01:00 +15°C° 0 mm 2 m/s 749 mmHg 88%
    02:00 +14°C° 0 mm 2 m/s 748 mmHg 89%
    03:00 +14°C° 0 mm 2 m/s 748 mmHg 89%
    04:00 +14°C° 0 mm 2 m/s 748 mmHg 90%
    05:00 +14°C° 0 mm 3 m/s 748 mmHg 84%
    06:00 +16°C° 0 mm 3 m/s 747 mmHg 78%
    07:00 +17°C° 0 mm 3 m/s 747 mmHg 71%
    08:00 +19°C° 0 mm 3 m/s 747 mmHg 66%
    09:00 +21°C° 0 mm 3 m/s 747 mmHg 60%
    10:00 +22°C° 0 mm 3 m/s 746 mmHg 54%
    11:00 +24°C° 0 mm 3 m/s 746 mmHg 52%
    12:00 +25°C° 0 mm 4 m/s 746 mmHg 49%
    13:00 +25°C° 0 mm 4 m/s 745 mmHg 47%
    14:00 +25°C° 0 mm 4 m/s 745 mmHg 47%
    15:00 +25°C° 0 mm 3 m/s 745 mmHg 47%
    16:00 +25°C° 0 mm 3 m/s 744 mmHg 47%
    17:00 +24°C° 0 mm 2 m/s 744 mmHg 53%
    18:00 +22°C° 0 mm 1 m/s 744 mmHg 59%
    19:00 +20°C° 0 mm 1 m/s 744 mmHg 65%
    20:00 +20°C° 0 mm 1 m/s 745 mmHg 66%
    21:00 +19°C° 0 mm 1 m/s 745 mmHg 68%
    22:00 +19°C° 0 mm 1 m/s 745 mmHg 69%
    23:00 +17°C° 0 mm 2 m/s 745 mmHg 74%

    27 Abril, Sábado

    Tempo Temperatura Precipitação Vento Pressão Humidade
    00:00 +16°C° 0 mm 3 m/s 745 mmHg 79%
    01:00 +15°C° 0 mm 4 m/s 745 mmHg 84%
    02:00 +14°C° 0.6 mm 5 m/s 746 mmHg 87%
    03:00 +14°C° 0.6 mm 5 m/s 746 mmHg 90%
    04:00 +13°C° 0.6 mm 5 m/s 746 mmHg 94%
    05:00 +13°C° 0.2 mm 5 m/s 747 mmHg 92%
    06:00 +13°C° 0.2 mm 6 m/s 747 mmHg 91%
    07:00 +11°C° 0.2 mm 6 m/s 747 mmHg 90%
    08:00 +11°C° 0.1 mm 6 m/s 747 mmHg 89%
    09:00 +11°C° 0.1 mm 6 m/s 748 mmHg 88%
    10:00 +11°C° 0.1 mm 6 m/s 748 mmHg 86%
    11:00 +11°C° 0 mm 6 m/s 748 mmHg 84%
    12:00 +12°C° 0 mm 5 m/s 748 mmHg 82%
    13:00 +13°C° 0 mm 5 m/s 748 mmHg 79%
    14:00 +13°C° 0 mm 5 m/s 748 mmHg 77%
    15:00 +13°C° 0 mm 5 m/s 748 mmHg 74%
    16:00 +14°C° 0 mm 5 m/s 748 mmHg 72%
    17:00 +13°C° 0 mm 4 m/s 748 mmHg 73%
    18:00 +13°C° 0 mm 3 m/s 748 mmHg 74%
    19:00 +12°C° 0 mm 3 m/s 748 mmHg 75%
    20:00 +11°C° 0 mm 3 m/s 748 mmHg 77%
    21:00 +10°C° 0 mm 2 m/s 749 mmHg 79%
    22:00 +10°C° 0 mm 2 m/s 749 mmHg 80%
    23:00 +9°C° 0 mm 2 m/s 749 mmHg 79%

    28 Abril, Domingo

    Tempo Temperatura Precipitação Vento Pressão Humidade
    00:00 +9°C° 0 mm 2 m/s 749 mmHg 77%
    01:00 +9°C° 0 mm 2 m/s 749 mmHg 76%
    02:00 +9°C° 0 mm 2 m/s 749 mmHg 76%
    03:00 +9°C° 0 mm 2 m/s 749 mmHg 76%
    04:00 +9°C° 0 mm 2 m/s 749 mmHg 76%
    05:00 +9°C° 0 mm 3 m/s 750 mmHg 76%
    06:00 +10°C° 0 mm 4 m/s 750 mmHg 75%
    07:00 +10°C° 0 mm 4 m/s 750 mmHg 75%
    08:00 +12°C° 0 mm 4 m/s 750 mmHg 71%
    09:00 +13°C° 0 mm 5 m/s 751 mmHg 68%
    10:00 +15°C° 0 mm 5 m/s 751 mmHg 64%
    11:00 +15°C° 0 mm 5 m/s 751 mmHg 62%
    12:00 +16°C° 0 mm 5 m/s 751 mmHg 59%
    13:00 +17°C° 0 mm 5 m/s 751 mmHg 56%
    14:00 +16°C° 0.1 mm 5 m/s 751 mmHg 60%
    15:00 +17°C° 0.1 mm 4 m/s 751 mmHg 63%
    16:00 +16°C° 0.1 mm 3 m/s 751 mmHg 66%
    17:00 +14°C° 0.4 mm 3 m/s 751 mmHg 72%
    18:00 +13°C° 0.4 mm 4 m/s 751 mmHg 78%
    19:00 +12°C° 0.4 mm 4 m/s 752 mmHg 84%
    20:00 +12°C° 0.3 mm 4 m/s 752 mmHg 85%
    21:00 +11°C° 0.3 mm 3 m/s 752 mmHg 87%
    22:00 +10°C° 0.3 mm 3 m/s 752 mmHg 89%
    23:00 +10°C° 0 mm 4 m/s 752 mmHg 90%

    29 Abril, Segunda-feira

    Tempo Temperatura Precipitação Vento Pressão Humidade
    00:00 +10°C° 0 mm 4 m/s 752 mmHg 90%
    01:00 +8°C° 0 mm 4 m/s 752 mmHg 91%
    02:00 +8°C° 0 mm 4 m/s 752 mmHg 92%
    03:00 +8°C° 0 mm 4 m/s 752 mmHg 93%
    04:00 +8°C° 0 mm 4 m/s 751 mmHg 94%
    05:00 +8°C° 0.1 mm 4 m/s 751 mmHg 92%
    06:00 +10°C° 0.1 mm 4 m/s 751 mmHg 91%
    07:00 +10°C° 0.1 mm 4 m/s 751 mmHg 90%
    08:00 +11°C° 0.2 mm 4 m/s 751 mmHg 91%
    09:00 +11°C° 0.2 mm 4 m/s 751 mmHg 91%
    10:00 +11°C° 0.2 mm 4 m/s 751 mmHg 92%
    11:00 +12°C° 0.2 mm 4 m/s 751 mmHg 91%
    12:00 +13°C° 0.2 mm 5 m/s 751 mmHg 89%
    13:00 +14°C° 0.2 mm 5 m/s 751 mmHg 88%
    14:00 +14°C° 0.3 mm 5 m/s 751 mmHg 87%
    15:00 +13°C° 0.3 mm 5 m/s 751 mmHg 86%
    16:00 +13°C° 0.3 mm 5 m/s 751 mmHg 85%
    17:00 +13°C° 0 mm 5 m/s 752 mmHg 85%
    18:00 +13°C° 0 mm 4 m/s 752 mmHg 86%
    19:00 +12°C° 0 mm 4 m/s 752 mmHg 86%
    20:00 +12°C° 0 mm 4 m/s 753 mmHg 87%
    21:00 +11°C° 0 mm 4 m/s 753 mmHg 87%
    22:00 +11°C° 0 mm 4 m/s 753 mmHg 88%
    23:00 +10°C° 0 mm 4 m/s 753 mmHg 85%
    Mostrar mais